This is the latest recevied weather packets stored in our database for station/object IW2NIA-3. If no packets are shown the sender has not sent any weather packets the latest 10 day(s).
| Time | Temp. | Humidity | Pressure | Rain* | Wind** | Luminosity | Snow |
|---|---|---|---|---|---|---|---|
| 1777931321 | 15.56° C | 70% | 1015.3 hPa | 0 mm | - | - | - |
| 1777930414 | 16.11° C | 69% | 1015.4 hPa | 0 mm | - | - | - |
| 1777929523 | 16.11° C | 68% | 1015.5 hPa | 0 mm | - | - | - |
| 1777928615 | 16.11° C | 67% | 1015.6 hPa | 0 mm | - | - | - |
| 1777927723 | 16.67° C | 66% | 1015.6 hPa | 0 mm | - | - | - |
| 1777926822 | 16.67° C | 65% | 1015.7 hPa | 0 mm | - | - | - |
| 1777925917 | 16.67° C | 66% | 1015.6 hPa | 0 mm | - | - | - |
| 1777925016 | 16.67° C | 65% | 1015.5 hPa | 0 mm | - | - | - |
| 1777924104 | 16.67° C | 62% | 1015.5 hPa | 0 mm | - | - | - |
| 1777923218 | 17.22° C | 61% | 1015.3 hPa | 0 mm | - | - | - |
| 1777922312 | 17.22° C | 59% | 1015.2 hPa | 0 mm | - | - | - |
| 1777921422 | 17.78° C | 58% | 1015.1 hPa | 0 mm | - | - | - |
| 1777920517 | 17.78° C | 61% | 1015 hPa | 0 mm | - | - | - |
| 1777919613 | 18.33° C | 55% | 1014.9 hPa | 0 mm | - | - | - |
| 1777918715 | 18.89° C | 55% | 1014.7 hPa | 0 mm | - | - | - |
| 1777917811 | 18.89° C | 52% | 1014.8 hPa | 0 mm | - | - | - |
| 1777916910 | 19.44° C | 49% | 1014.9 hPa | 0 mm | - | - | - |
| 1777916008 | 19.44° C | 46% | 1014.8 hPa | 0 mm | - | - | - |
| 1777914212 | 20° C | 47% | 1014.9 hPa | 0 mm | - | - | - |
| 1777913322 | 20° C | 47% | 1015 hPa | 0 mm | - | - | - |
| 1777912415 | 20° C | 47% | 1015.1 hPa | 0 mm | - | - | - |
| 1777911513 | 20° C | 47% | 1015.1 hPa | 0 mm | - | - | - |
| 1777910608 | 20° C | 45% | 1015.1 hPa | 0 mm | - | - | - |
| 1777909708 | 20.56° C | 45% | 1015.1 hPa | 0 mm | - | - | - |
| 1777908817 | 20.56° C | 46% | 1015.2 hPa | 0 mm | - | - | - |
* Rain latest hour (hover to see other rain measurements)
** Current wind speed in m/s (hover to see current wind gust speed)